VK6WB Weather Reports


time (UTC)temp
C
wind
direction
speed
KPH
gust
KPH
rain 1hr
cm
rain 24hr
cm
rain mn
cm
humidity
%
barometer
mb
20260506165005 15 273 3.2 12.9 0.00 0.00 0.00 57 1025.1
20260506164004 15 270 6.4 20.9 0.00 0.00 0.00 56 1025.2
20260506163005 15 296 8.0 12.9 0.00 0.00 0.00 56 1025.4
20260506162005 15 302 4.8 12.9 0.00 0.00 0.00 56 1025.4
20260506161005 15 304 3.2 12.9 0.00 0.00 0.00 54 1025.5
20260506160006 15 301 3.2 14.5 0.00 0.00 0.00 53 1025.4
20260506155005 15 288 6.4 14.5 0.00 0.00 0.00 53 1025.4
20260506154005 15 290 4.8 17.7 0.00 0.00 0.00 53 1025.3
20260506153005 15 273 8.0 14.5 0.00 0.00 0.00 54 1025.3
20260506152005 15 287 4.8 12.9 0.00 0.00 0.00 53 1025.3
20260506151005 16 293 8.0 12.9 0.00 0.00 0.00 53 1025.5
20260506150005 16 275 6.4 14.5 0.00 0.00 0.00 53 1025.6
20260506145004 16 300 8.0 12.9 0.00 0.00 0.00 52 1025.6
20260506144005 16 283 4.8 14.5 0.00 0.00 0.00 52 1025.7
20260506143005 16 289 3.2 12.9 0.00 0.00 0.00 52 1025.7
20260506142004 16 283 4.8 12.9 0.00 0.00 0.00 52 1025.7
20260506141005 16 278 4.8 11.3 0.00 0.00 0.00 52 1025.8
20260506140005 16 301 3.2 11.3 0.00 0.00 0.00 53 1025.6
20260506135005 16 285 6.4 12.9 0.00 0.00 0.00 53 1025.5
20260506134005 16 285 3.2 9.7 0.00 0.00 0.00 53 1025.4
20260506133004 16 313 4.8 9.7 0.00 0.00 0.00 53 1025.5
20260506132005 16 319 4.8 14.5 0.00 0.00 0.00 52 1025.2
20260506131005 17 311 6.4 12.9 0.00 0.00 0.00 52 1025.3
20260506130005 17 316 4.8 12.9 0.00 0.00 0.00 52 1025.3
20260506125005 17 309 6.4 12.9 0.00 0.00 0.00 52 1025.2
20260506124005 17 311 6.4 19.3 0.00 0.00 0.00 52 1025.1
20260506123005 17 319 6.4 12.9 0.00 0.00 0.00 52 1025.1
20260506122005 17 322 6.4 16.1 0.00 0.00 0.00 51 1025.0
20260506121005 17 318 4.8 9.7 0.00 0.00 0.00 54 1025.0
20260506120005 17 328 3.2 8.0 0.00 0.00 0.00 54 1024.8
20260506115005 17 317 1.6 8.0 0.00 0.00 0.00 54 1024.7
20260506114005 17 320 3.2 6.4 0.00 0.00 0.00 54 1024.7
20260506113004 17 318 3.2 9.7 0.00 0.00 0.00 53 1024.7
20260506112005 17 319 4.8 11.3 0.00 0.00 0.00 53 1024.7
20260506111005 18 314 3.2 11.3 0.00 0.00 0.00 53 1024.7
20260506110004 18 307 6.4 11.3 0.00 0.00 0.00 52 1024.4
20260506105005 18 323 6.4 12.9 0.00 0.00 0.00 52 1024.3
20260506104004 18 333 4.8 11.3 0.00 0.00 0.00 52 1024.4
20260506103005 18 311 4.8 11.3 0.00 0.00 0.00 52 1024.2
20260506102005 18 301 3.2 11.3 0.00 0.00 0.00 52 1024.1
20260506101004 19 313 6.4 12.9 0.00 0.00 0.00 50 1023.9
20260506100005 19 316 4.8 8.0 0.00 0.00 0.00 49 1023.8
20260506095004 20 296 3.2 9.7 0.00 0.00 0.00 46 1023.6
20260506094005 20 290 3.2 9.7 0.00 0.00 0.00 44 1023.6
20260506093004 20 296 6.4 14.5 0.00 0.00 0.00 43 1023.4
20260506092005 21 292 6.4 11.3 0.00 0.00 0.00 43 1023.4
20260506091004 31 296 4.8 12.9 0.00 0.00 0.00 42 1023.4
20260506090005 28 294 6.4 17.7 0.00 0.00 0.00 39 1023.4
20260506085005 22 294 6.4 22.5 0.00 0.00 0.00 39 1023.4
20260506084004 22 279 8.0 19.3 0.00 0.00 0.00 39 1023.5
20260506083005 22 294 9.7 19.3 0.00 0.00 0.00 39 1023.3
20260506082005 24 296 6.4 17.7 0.00 0.00 0.00 39 1023.4
20260506081005 22 313 9.7 20.9 0.00 0.00 0.00 39 1023.4
20260506073004 22 295 6.4 17.7 0.00 0.00 0.00 39 1023.2
20260506072004 22 279 8.0 20.9 0.00 0.00 0.00 38 1023.4
20260506071005 22 275 12.9 22.5 0.00 0.00 0.00 38 1023.3
20260506062004 22 249 6.4 24.1 0.00 0.00 0.00 38 1023.4
20260506061004 22 259 12.9 19.3 0.00 0.00 0.00 38 1023.4
20260506051004 22 262 6.4 24.1 0.00 0.00 0.00 36 1023.7
20260506045004 22 260 12.9 24.1 0.00 0.00 0.00 36 1023.8
20260506044005 21 245 4.8 22.5 0.00 0.00 0.00 36 1024.0
20260506043004 21 255 12.9 24.1 0.00 0.00 0.00 34 1024.1
20260506042005 21 276 9.7 20.9 0.00 0.00 0.00 35 1024.3
20260506041004 21 236 8.0 17.7 0.00 0.00 0.00 35 1024.5
20260506040004 21 239 6.4 24.1 0.00 0.00 0.00 31 1024.5
20260506035004 21 235 9.7 24.1 0.00 0.00 0.00 31 1024.7
20260506034004 21 245 4.8 17.7 0.00 0.00 0.00 31 1024.7
20260506033005 21 264 8.0 19.3 0.00 0.00 0.00 29 1025.0
20260506032004 21 267 6.4 19.3 0.00 0.00 0.00 29 1025.0
20260506031004 20 266 11.3 24.1 0.00 0.00 0.00 28 1025.1
20260506030005 20 245 11.3 27.4 0.00 0.00 0.00 25 1025.2
20260506025004 20 243 6.4 24.1 0.00 0.00 0.00 26 1025.0
20260506024005 20 270 14.5 24.1 0.00 0.00 0.00 25 1025.1
20260506023004 19 231 9.7 19.3 0.00 0.00 0.00 23 1025.3
20260506022004 19 270 11.3 17.7 0.00 0.00 0.00 21 1025.3
20260506021004 18 275 8.0 17.7 0.00 0.00 0.00 22 1025.4
20260506020004 18 284 12.9 20.9 0.00 0.00 0.00 22 1025.4
20260506015004 18 270 8.0 17.7 0.00 0.00 0.00 21 1025.5
20260506014004 17 270 11.3 24.1 0.00 0.00 0.00 22 1025.5
20260506013004 17 282 12.9 22.5 0.00 0.00 0.00 23 1025.5
20260506012004 16 289 12.9 22.5 0.00 0.00 0.00 23 1025.5
20260506011004 25 271 6.4 25.7 0.00 0.00 0.00 24 1025.5
20260506010004 16 285 12.9 27.4 0.00 0.00 0.00 23 1025.4
20260506005004 15 273 14.5 24.1 0.00 0.00 0.00 24 1025.4
20260506004004 15 268 14.5 24.1 0.00 0.00 0.00 23 1025.2
20260506003004 15 269 11.3 17.7 0.00 0.00 0.00 25 1025.2
20260506002004 15 288 4.8 17.7 0.00 0.00 0.00 25 1025.1
20260506001004 14 293 12.9 17.7 0.00 0.00 0.00 26 1025.0
20260506000004 13 299 9.7 17.7 0.00 0.00 0.00 28 1024.9
20260505235004 13 300 12.9 20.9 0.00 0.00 0.00 29 1024.8
20260505234004 13 304 9.7 17.7 0.00 0.00 0.00 31 1024.6
20260505233004 12 290 9.7 22.5 0.00 0.00 0.00 34 1024.5
20260505232004 12 293 9.7 16.1 0.00 0.00 0.00 39 1024.4
20260505231004 12 291 6.4 17.7 0.00 0.00 0.00 41 1024.1
20260505230004 11 284 6.4 12.9 0.00 0.00 0.00 44 1024.0
20260505225004 11 269 4.8 12.9 0.00 0.00 0.00 45 1023.9
20260505224003 12 291 4.8 12.9 0.00 0.00 0.00 46 1023.9
20260505223004 12 272 6.4 12.9 0.00 0.00 0.00 46 1023.8
20260505222003 12 277 6.4 14.5 0.00 0.00 0.00 46 1023.9
20260505221004 12 271 9.7 14.5 0.00 0.00 0.00 46 1023.6
20260505220003 12 286 6.4 22.5 0.00 0.00 0.00 47 1023.6
20260505215004 12 286 4.8 17.7 0.00 0.00 0.00 47 1023.5
20260505214004 12 275 8.0 17.7 0.00 0.00 0.00 48 1023.4
20260505213003 12 280 11.3 19.3 0.00 0.00 0.00 49 1023.4
20260505212004 12 281 11.3 19.3 0.00 0.00 0.00 50 1023.4
20260505211003 13 303 11.3 25.7 0.00 0.00 0.00 50 1023.3
20260505210003 13 306 8.0 27.4 0.00 0.00 0.00 50 1023.1
20260505205003 13 303 11.3 24.1 0.00 0.00 0.00 50 1023.1
20260505204003 13 279 8.0 22.5 0.00 0.00 0.00 50 1023.1
20260505203004 13 300 12.9 20.9 0.00 0.00 0.00 51 1023.0
20260505202004 13 288 11.3 24.1 0.00 0.00 0.00 51 1023.0
20260505201003 13 298 8.0 19.3 0.00 0.00 0.00 52 1022.9
20260505200003 13 294 11.3 17.7 0.00 0.00 0.00 52 1022.9
20260505195004 13 283 6.4 19.3 0.00 0.00 0.00 52 1022.9
20260505194005 13 283 6.4 20.9 0.00 0.00 0.00 52 1022.9
20260505193005 13 306 6.4 17.7 0.00 0.00 0.00 52 1022.8
20260505192005 13 290 8.0 16.1 0.00 0.00 0.00 52 1022.9
20260505191006 13 290 8.0 17.7 0.00 0.00 0.00 52 1022.7
20260505190005 14 289 4.8 17.7 0.00 0.00 0.00 51 1022.6
20260505185005 14 299 9.7 17.7 0.00 0.00 0.00 51 1022.6
20260505184006 14 289 9.7 14.5 0.00 0.00 0.00 51 1022.7
20260505183005 14 294 6.4 16.1 0.00 0.00 0.00 51 1022.8
20260505182005 14 301 9.7 19.3 0.00 0.00 0.00 50 1022.9
20260505181006 14 303 8.0 19.3 0.00 0.00 0.00 50 1022.8
20260505180005 15 304 6.4 25.7 0.00 0.00 0.00 48 1022.9
20260505175005 15 294 9.7 27.4 0.00 0.00 0.00 47 1022.8
20260505174006 15 285 6.4 22.5 0.00 0.00 0.00 47 1022.8
20260505173005 15 295 11.3 22.5 0.00 0.00 0.00 47 1022.8
20260505172005 15 301 9.7 22.5 0.00 0.00 0.00 46 1022.8
20260505171006 15 291 11.3 20.9 0.00 0.00 0.00 46 1022.6
20260505170005 14 304 6.4 17.7 0.00 0.00 0.00 48 1022.6